TimeMST,TemperatureF,Dew PointF,Humidity,Sea Level PressureIn,VisibilityMPH,Wind Direction,Wind SpeedMPH,Gust SpeedMPH,PrecipitationIn,Events,Conditions,WindDirDegrees,DateUTC
12:56 AM,60.1,12.0,15,29.74,10.0,SSW,8.1,-,N/A,,Clear,200,2013-05-05 07:56:00
1:56 AM,57.9,12.9,17,29.74,10.0,SSW,3.5,-,N/A,,Clear,200,2013-05-05 08:56:00
2:56 AM,59.0,14.0,17,29.74,10.0,South,10.4,-,N/A,,Clear,190,2013-05-05 09:56:00
3:56 AM,55.9,15.1,20,29.77,10.0,SW,11.5,-,N/A,,Clear,220,2013-05-05 10:56:00
4:56 AM,55.0,14.0,20,29.78,10.0,SSE,4.6,-,N/A,,Clear,160,2013-05-05 11:56:00
5:56 AM,55.9,12.0,18,29.82,10.0,SSE,9.2,-,N/A,,Clear,160,2013-05-05 12:56:00
6:56 AM,57.0,12.9,18,29.85,10.0,Calm,Calm,-,N/A,,Clear,0,2013-05-05 13:56:00
7:56 AM,63.0,15.1,16,29.86,10.0,SSE,13.8,-,N/A,,Clear,150,2013-05-05 14:56:00
8:56 AM,66.0,18.0,16,29.86,10.0,SE,11.5,19.6,N/A,,Clear,140,2013-05-05 15:56:00
9:56 AM,66.9,21.0,17,29.87,10.0,SE,10.4,17.3,N/A,,Clear,140,2013-05-05 16:56:00
10:56 AM,72.0,14.0,11,29.85,10.0,South,12.7,21.9,N/A,,Clear,170,2013-05-05 17:56:00
11:56 AM,72.0,12.9,10,29.82,10.0,South,11.5,20.7,N/A,,Clear,170,2013-05-05 18:56:00
12:56 PM,75.0,15.1,10,29.79,10.0,SSW,12.7,21.9,N/A,,Clear,200,2013-05-05 19:56:00
1:56 PM,73.9,16.0,11,29.79,10.0,SW,13.8,-,N/A,,Clear,220,2013-05-05 20:56:00
2:27 PM,77.0,17.6,11,29.95,10.0,South,13.8,26.5,N/A,,Clear,190,2013-05-05 21:27:00
2:56 PM,75.9,15.1,10,29.76,10.0,SSW,21.9,29.9,N/A,,Clear,210,2013-05-05 21:56:00
3:56 PM,77.0,17.1,10,29.75,10.0,SW,18.4,26.5,N/A,,Clear,220,2013-05-05 22:56:00
4:56 PM,73.9,15.1,11,29.76,10.0,SSW,18.4,27.6,N/A,,Clear,210,2013-05-05 23:56:00
5:56 PM,73.0,14.0,11,29.76,10.0,SSW,21.9,-,N/A,,Partly Cloudy,200,2013-05-06 00:56:00
6:56 PM,69.1,12.0,11,29.78,10.0,SW,16.1,-,N/A,,Partly Cloudy,220,2013-05-06 01:56:00
7:56 PM,63.0,12.0,14,29.79,10.0,WSW,8.1,-,N/A,,Clear,240,2013-05-06 02:56:00
8:56 PM,57.0,12.0,17,29.80,10.0,WSW,6.9,-,N/A,,Clear,240,2013-05-06 03:56:00
9:56 PM,52.0,12.0,20,29.81,10.0,SW,6.9,-,N/A,,Clear,230,2013-05-06 04:56:00
10:56 PM,54.0,14.0,21,29.79,10.0,SSE,4.6,-,N/A,,Clear,150,2013-05-06 05:56:00
11:56 PM,57.0,16.0,20,29.79,10.0,West,5.8,-,N/A,,Overcast,260,2013-05-06 06:56:00